This demonstration page uses our WeatherBlox Daily Observations layout. Learn more.

38.89511, -77.03637

Hourly Observations for September 9, 2016

Temp ( °F °C ) Dew Point ( °F °C ) Humidity (%) Winds ( mph kmh ) Pressure ( in mb ) Visibility ( mi km ) Precip ( " mm )
12:52 am 00:52 Cloudy 82 27.8 76 24.4 82 82 S 10 17 29.9 1013 10 16.0934 0 0
1:52 am 01:52 Cloudy 81 27.2 76 24.4 85 85 S 7 11 29.91 1013 10 16.0934 0 0
2:52 am 02:52 Mostly Cloudy 81 27.2 76 24.4 85 85 S 7 11 29.91 1013 10 16.0934 0 0
3:52 am 03:52 Mostly Cloudy 80 26.7 76 24.4 87 87 S 7 11 29.91 1013 10 16.0934 0 0
4:52 am 04:52 Mostly Cloudy 80 26.7 75 23.9 85 85 S 9 15 29.92 1013 10 16.0934 0 0
5:52 am 05:52 Mostly Cloudy 79 26.1 75 23.9 88 88 S 6 9 29.93 1014 10 16.0934 0 0
6:52 am 06:52 Mostly Cloudy 79 26.1 75 23.9 88 88 S 6 9 29.93 1014 10 16.0934 0 0
7:52 am 07:52 Mostly Cloudy 80 26.7 74 23.3 82 82 SSW 3 6 29.94 1014 10 16.0934 0 0
8:52 am 08:52 Mostly Cloudy 81 27.2 74 23.3 79 79 SSE 6 9 29.96 1014 10 16.0934 0 0
9:52 am 09:52 Mostly Cloudy 86 30 74 23.3 67 67 SSE 8 13 29.96 1015 10 16.0934 0 0
10:52 am 10:52 Mostly Cloudy 93 33.9 65 18.3 40 40 W 9 15 29.96 1015 10 16.0934 0 0
11:52 am 11:52 Mostly Cloudy 95 35 67 19.4 40 40 WSW 9 15 29.96 1014 10 16.0934 0 0
12:52 pm 12:52 Mostly Cloudy 93 33.9 67 19.4 42 42 W 3 6 29.95 1014 10 16.0934 0 0
1:52 pm 13:52 Mostly Cloudy 95 35 66 18.9 39 39 SW 8 13 29.95 1014 10 16.0934 0 0
2:52 pm 14:52 Mostly Cloudy 93 33.9 68 20 44 44 S 7 11 29.93 1014 10 16.0934 0 0
3:52 pm 15:52 Mostly Cloudy 94 34.4 68 20 43 43 S 12 19 29.93 1013 10 16.0934 0 0
4:52 pm 16:52 Mostly Cloudy 92 33.3 72 22.2 52 52 S 12 19 29.92 1013 10 16.0934 0 0
5:52 pm 17:52 Mostly Cloudy 92 33.3 74 23.3 56 56 S 9 15 29.93 1013 10 16.0934 0 0
6:52 pm 18:52 Mostly Cloudy 88 31.1 76 24.4 68 68 S 9 15 29.93 1014 10 16.0934 0 0
7:52 pm 19:52 Mostly Cloudy 86 30 75 23.9 70 70 S 6 9 29.94 1014 10 16.0934 0 0
8:52 pm 20:52 Mostly Clear 86 30 74 23.3 67 67 S 3 6 29.95 1014 10 16.0934 0 0
9:52 pm 21:52 Mostly Clear 83 28.3 76 24.4 79 79 S 7 11 29.97 1015 10 16.0934 0 0
10:52 pm 22:52 Mostly Clear 83 28.3 76 24.4 79 79 S 5 7 29.98 1015 10 16.0934 0 0
11:52 pm 23:52 Partly Cloudy 82 27.8 76 24.4 82 82 S 8 13 29.98 1015 10 16.0934 0 0

Powered by AerisWeather